Grand Island, NE

8:18 PM CST on November 19, 2019 (GMT -0600)
Central Nebraska Regional

Weather History for KGRI - October, 2019

Change the Weather History Date:

Wednesday, October 23, 2019

  Actual Average Record
Temperature  
Mean Temperature 50 °F 49 °F  
Max Temperature 63 °F 62 °F 88 °F (1927)
Min Temperature 36 °F 37 °F 16 °F (1981)
Degree Days  
Heating Degree Days 15 16  
Month to date heating degree days 312 268  
Since 1 July heating degree days 324 383  
Cooling Degree Days 0 0  
Month to date cooling degree days 0 10  
Year to date cooling degree days 1153 1033  
Moisture  
Dew Point 35 °F    
Average Humidity 58    
Maximum Humidity 86    
Minimum Humidity 30    
Precipitation  
Precipitation T in 0.05 in 2.11 in (1906)
Month to date precipitation 1.23 1.47  
Year to date precipitation 36.18 24.47  
Snow  
Snow 0.00 in 0.10 in 3.80 in (2002)
Month to date snowfall T 0.6  
Since 1 July snowfall T 0.7  
Since 1 September snowfall T 0.7  
Snow Depth 0.00 in    
Sea Level Pressure  
Sea Level Pressure 30.00 in    
Wind  
Wind Speed 16 mph (NW)    
Max Wind Speed 33 mph    
Max Gust Speed 43 mph    
Visibility 10 miles    
Events Rain    
T = Trace of Precipitation, MM = Missing Value Source: NWS Daily Summary

Daily Weather History Graph

Daily Weather History Graph

Search for Another Location

Airport or City:

Astronomy

Oct. 23, 2019 Rise Set
Actual Time 7:53 AM CDT 6:41 PM CDT
Civil Twilight 7:25 AM CDT 7:09 PM CDT
Nautical Twilight 6:53 AM CDT 7:41 PM CDT
Astronomical Twilight 6:21 AM CDT 8:12 PM CDT
Moon 2:10 AM CDT (10/23) 4:35 PM CDT (10/23)
Length of Visible Light 11h 43m
Length of Day
10h 47m
Waning Crescent, 26% of the Moon is Illuminated
Oct 23
Waning Crescent
Oct 27
New
Nov 4
First Quarter
Nov 12
Full
Nov 19
Last Quarter

Hourly Weather History & Observations

Time (CDT) Temp. Windchill Dew Point Humidity Pressure Visibility Wind Dir Wind Speed Gust Speed Precip Events Conditions
12:53 AM 48.9 °F - 41.0 °F 74% 29.84 in 10.0 mi SW 4.6 mph - 0.00 in   Overcast
1:53 AM 46.0 °F 43.9 °F 41.0 °F 83% 29.83 in 10.0 mi SSW 4.6 mph - N/A   Mostly Cloudy
2:53 AM 48.0 °F - 44.1 °F 86% 29.81 in 10.0 mi South 6.9 mph - 0.00 in   Scattered Clouds
3:53 AM 48.0 °F - 42.1 °F 80% 29.78 in 10.0 mi South 6.9 mph - 0.00 in Rain Light Rain
4:53 AM 51.1 °F - 37.9 °F 61% 29.76 in 10.0 mi SSW 13.8 mph - 0.00 in   Scattered Clouds
5:53 AM 51.1 °F - 34.0 °F 52% 29.77 in 10.0 mi SSW 10.4 mph - N/A   Scattered Clouds
6:53 AM 48.0 °F - 32.0 °F 54% 29.78 in 10.0 mi SW 9.2 mph - N/A   Clear
7:53 AM 46.0 °F 39.9 °F 35.1 °F 66% 29.83 in 10.0 mi WNW 13.8 mph - N/A   Clear
8:53 AM 48.0 °F - 39.0 °F 71% 29.87 in 10.0 mi NW 16.1 mph - N/A   Clear
9:53 AM 51.1 °F - 39.9 °F 66% 29.88 in 10.0 mi NW 16.1 mph 31.1 mph N/A   Overcast
11:53 AM 57.0 °F - 37.0 °F 47% 29.93 in 10.0 mi NW 27.6 mph 40.3 mph N/A   Clear
12:53 PM 59.0 °F - 35.1 °F 41% 29.94 in 10.0 mi NNW 25.3 mph 36.8 mph N/A   Clear
1:53 PM 60.1 °F - 34.0 °F 38% 29.95 in 10.0 mi NNW 17.3 mph 27.6 mph N/A   Scattered Clouds
2:53 PM 62.1 °F - 30.9 °F 31% 29.94 in 10.0 mi NW 19.6 mph 31.1 mph N/A   Scattered Clouds
3:53 PM 62.1 °F - 30.9 °F 31% 29.94 in 10.0 mi North 19.6 mph 27.6 mph N/A   Clear
4:53 PM 59.0 °F - 32.0 °F 36% 29.97 in 10.0 mi North 18.4 mph - N/A   Clear
5:53 PM 54.0 °F - 33.1 °F 45% 30.02 in 10.0 mi North 20.7 mph 34.5 mph N/A   Clear
6:53 PM 50.0 °F - 37.9 °F 63% 30.10 in 10.0 mi NNW 16.1 mph 26.5 mph N/A   Clear
7:40 PM 45.0 °F 36.4 °F 36.0 °F 71% 30.15 in 10.0 mi NNW 23.0 mph 42.6 mph N/A   Mostly Cloudy
7:53 PM 43.0 °F 32.9 °F 35.1 °F 74% 30.19 in 10.0 mi North 27.6 mph 39.1 mph N/A   Overcast
8:41 PM 39.9 °F 29.5 °F 32.0 °F 73% 30.20 in 10.0 mi North 24.2 mph 36.8 mph N/A   Overcast
8:53 PM 39.0 °F 29.9 °F 30.9 °F 73% 30.26 in 10.0 mi North 17.3 mph 29.9 mph N/A   Overcast
9:53 PM 37.9 °F 27.9 °F 28.9 °F 70% 30.31 in 10.0 mi North 19.6 mph 32.2 mph N/A   Overcast
10:09 PM 37.0 °F 27.7 °F 28.0 °F 70% 30.28 in 10.0 mi North 16.1 mph 27.6 mph N/A   Overcast
10:40 PM 37.0 °F 28.5 °F 28.9 °F 73% 30.31 in 10.0 mi North 13.8 mph - N/A   Overcast
10:53 PM 37.0 °F 27.7 °F 28.9 °F 73% 30.36 in 10.0 mi North 16.1 mph 21.9 mph N/A   Overcast
11:53 PM 37.0 °F 28.9 °F 28.9 °F 73% 30.37 in 10.0 mi NNW 12.7 mph - N/A   Overcast